Zurück zum Katalog

STARLINK-36808

AktivKommunikationSSO
NORAD 67881·PAYLOAD·🇺🇸 United States

Gestartet Feb 21, 2026 von Vandenberg Space Force Base

Loading…

Nächste Überflüge (nächste 24 Stunden)

TLE

AktuellSource: CelesTrak SupGP

Epoche: Sep 15, 2026, 03:25 UTC

1 67881C 26035C   26258.14284722  .00094958  00000+0  29480-2 0  2586
2 67881  97.2847 190.0985 0002236 100.0132 271.6707 15.33386048    13

Verfolge STARLINK-36808 in Echtzeit mit AllMySat

Download on the App Store